DW6371 Weather Reports


Display with metric or nautical units.
time (UTC)temp
F
wind
direction
speed
MPH
gust
MPH
rain 1hr
in
rain 24hr
in
rain mn
in
humidity
%
barometer
mb
20210925071528 48 306 0.0 2.0 0.00 0.00 0.00 60 1022.5
20210925071023 48 307 0.0 2.0 0.00 0.00 0.00 60 1022.4
20210925070532 48 290 1.0 2.0 0.00 0.00 0.00 61 1022.4
20210925070038 48 315 0.0 3.0 0.00 0.00 0.00 61 1022.4
20210925065520 48 316 2.0 4.0 0.00 0.00 0.00 61 1022.2
20210925065020 47 309 3.0 4.0 0.00 0.00 0.00 62 1022.2
20210925064522 47 310 3.0 4.0 0.00 0.00 0.00 62 1022.3
20210925064023 46 316 2.0 3.0 0.00 0.00 0.00 62 1022.4
20210925063519 46 317 2.0 3.0 0.00 0.00 0.00 62 1022.4
20210925063043 46 315 2.0 3.0 0.00 0.00 0.00 62 1022.4
20210925062521 46 323 2.0 3.0 0.00 0.00 0.00 62 1022.4
20210925062026 46 297 1.0 3.0 0.00 0.00 0.00 61 1022.4
20210925061616 47 297 1.0 2.0 0.00 0.00 0.00 59 1022.3
20210925061016 47 241 0.0 2.0 0.00 0.00 0.00 62 1022.4
20210925060519 46 22 0.0 2.0 0.00 0.00 0.00 63 1022.4
20210925060014 45 297 0.0 0.0 0.00 0.00 0.00 58 1022.3
20210925055517 46 288 0.0 0.0 0.00 0.00 0.00 59 1022.0
20210925055011 45 288 0.0 0.0 0.00 0.00 0.00 60 1021.9
20210925054525 45 288 0.0 0.0 0.00 0.00 0.00 58 1021.8
20210925054018 46 278 0.0 0.0 0.00 0.00 0.00 57 1021.8
20210925053507 47 278 0.0 0.0 0.00 0.00 0.00 56 1021.7
20210925053008 48 278 0.0 0.0 0.00 0.00 0.00 53 1021.7
20210925052505 50 251 0.0 0.0 0.00 0.00 0.00 54 1021.6
20210925052006 51 235 0.0 1.0 0.00 0.00 0.00 56 1021.7
20210925051511 51 211 0.0 0.0 0.00 0.00 0.00 57 1021.6
20210925051010 51 211 0.0 2.0 0.00 0.00 0.00 57 1021.5
20210925050505 50 159 0.0 0.0 0.00 0.00 0.00 56 1021.6
20210925050006 50 110 0.0 0.0 0.00 0.00 0.00 55 1021.4
20210925045510 50 110 0.0 0.0 0.00 0.00 0.00 55 1021.4
20210925045003 50 276 0.0 1.0 0.00 0.00 0.00 54 1021.3
20210925044636 50 276 0.0 1.0 0.00 0.00 0.00 52 1021.2
20210925044128 51 266 0.0 1.0 0.00 0.00 0.00 53 1021.2
20210925044001 51 265 0.0 0.0 0.00 0.00 0.00 52 1021.2
20210925043559 52 217 0.0 0.0 0.00 0.00 0.00 52 1021.2
20210925043144 51 217 0.0 0.0 0.00 0.00 0.00 54 1021.0
20210925042558 52 157 0.0 0.0 0.00 0.00 0.00 52 1021.1
20210925042100 52 151 0.0 0.0 0.00 0.00 0.00 52 1021.1
20210925041644 52 143 0.0 0.0 0.00 0.00 0.00 51 1021.0
20210925041057 52 143 0.0 0.0 0.00 0.00 0.00 51 1020.8
20210925040556 53 143 0.0 0.0 0.00 0.00 0.00 49 1020.8
20210925040140 53 143 0.0 0.0 0.00 0.00 0.00 49 1020.7
20210925035556 54 143 0.0 0.0 0.00 0.00 0.00 48 1020.6
20210925035056 55 143 0.0 2.0 0.00 0.00 0.00 47 1020.5
20210925034855 56 143 0.0 3.0 0.00 0.00 0.00 46 1020.4
20210925034111 57 286 1.0 3.0 0.00 0.00 0.00 47 1020.4
20210925033610 57 284 0.0 3.0 0.00 0.00 0.00 46 1020.3
20210925033320 57 294 1.0 4.0 0.00 0.00 0.00 46 1020.2
20210925032613 58 288 3.0 4.0 0.00 0.00 0.00 45 1020.0
20210925032056 59 290 2.0 4.0 0.00 0.00 0.00 44 1020.0
20210925031648 60 295 1.0 3.0 0.00 0.00 0.00 45 1020.0
20210925031055 60 307 1.0 3.0 0.00 0.00 0.00 45 1019.9
20210925030554 60 307 0.0 1.0 0.00 0.00 0.00 45 1019.9
20210925030144 60 163 0.0 3.0 0.00 0.00 0.00 45 1019.8
20210925025612 60 317 0.0 3.0 0.00 0.00 0.00 44 1019.8
20210925025104 60 259 0.0 2.0 0.00 0.00 0.00 44 1019.8
20210925024636 59 260 0.0 2.0 0.00 0.00 0.00 43 1019.7
20210925024110 59 193 0.0 3.0 0.00 0.00 0.00 40 1019.6
20210925023554 61 306 0.0 5.0 0.00 0.00 0.00 41 1019.5
20210925023256 61 292 3.0 5.0 0.00 0.00 0.00 41 1019.4
20210925022553 62 288 1.0 4.0 0.00 0.00 0.00 37 1019.3
20210925022128 63 217 0.0 4.0 0.00 0.00 0.00 36 1019.2
20210925021644 64 229 0.0 4.0 0.00 0.00 0.00 35 1019.2
20210925021122 63 214 1.0 5.0 0.00 0.00 0.00 35 1019.1
20210925020553 64 167 1.0 5.0 0.00 0.00 0.00 33 1019.1
20210925020054 64 238 1.0 6.0 0.00 0.00 0.00 32 1019.1
20210925015552 64 199 2.0 6.0 0.00 0.00 0.00 31 1018.9
20210925015052 65 194 1.0 4.0 0.00 0.00 0.00 30 1018.8
20210925014641 66 245 2.0 3.0 0.00 0.00 0.00 30 1018.7
20210925014053 67 247 0.0 1.0 0.00 0.00 0.00 29 1018.6
20210925013553 67 242 0.0 4.0 0.00 0.00 0.00 29 1018.5
20210925013130 68 259 2.0 4.0 0.00 0.00 0.00 28 1018.4
20210925012552 68 226 1.0 2.0 0.00 0.00 0.00 28 1018.4
20210925012119 69 245 0.0 3.0 0.00 0.00 0.00 28 1018.5
20210925011646 69 244 0.0 4.0 0.00 0.00 0.00 28 1018.4
20210925011051 69 197 3.0 4.0 0.00 0.00 0.00 28 1018.3
20210925010551 69 203 3.0 4.0 0.00 0.00 0.00 27 1018.3
20210925010100 70 165 2.0 5.0 0.00 0.00 0.00 27 1018.3
20210925005550 71 177 3.0 5.0 0.00 0.00 0.00 26 1018.3
20210925005051 71 186 3.0 6.0 0.00 0.00 0.00 26 1018.3
20210925004639 72 200 4.0 6.0 0.00 0.00 0.00 26 1018.3
20210925004106 72 188 3.0 4.0 0.00 0.00 0.00 26 1018.2
20210925003631 73 181 3.0 5.0 0.00 0.00 0.00 25 1018.2
20210925003126 73 189 2.0 4.0 0.00 0.00 0.00 25 1018.2
20210925002549 74 186 3.0 4.0 0.00 0.00 0.00 24 1018.1
20210925002105 74 190 2.0 6.0 0.00 0.00 0.00 24 1018.1
20210925001551 75 197 3.0 8.0 0.00 0.00 0.00 23 1018.0
20210925001050 76 166 5.0 10.0 0.00 0.00 0.00 23 1018.0
20210925000547 77 180 5.0 10.0 0.00 0.00 0.00 23 1018.0
20210925000132 77 195 6.0 10.0 0.00 0.00 0.00 22 1017.9
20210924235551 77 189 8.0 11.0 0.00 0.00 0.00 22 1017.9
20210924235058 78 180 7.0 10.0 0.00 0.00 0.00 22 1017.9
20210924234552 78 183 5.0 10.0 0.00 0.00 0.00 22 1017.8
20210924234052 79 143 3.0 10.0 0.00 0.00 0.00 21 1017.8
20210924233546 79 127 3.0 8.0 0.00 0.00 0.00 21 1017.8
20210924233213 80 144 2.0 6.0 0.00 0.00 0.00 21 1017.8
20210924232546 80 124 0.0 6.0 0.00 0.00 0.00 21 1017.7
20210924232108 80 188 1.0 9.0 0.00 0.00 0.00 20 1017.8
20210924231554 80 150 5.0 9.0 0.00 0.00 0.00 20 1017.7
20210924231045 80 180 3.0 11.0 0.00 0.00 0.00 20 1017.7
20210924230545 81 188 6.0 11.0 0.00 0.00 0.00 20 1017.6
20210924230109 81 177 4.0 8.0 0.00 0.00 0.00 20 1017.7
20210924225543 80 142 4.0 9.0 0.00 0.00 0.00 20 1017.7
20210924225047 81 119 4.0 9.0 0.00 0.00 0.00 20 1017.8
20210924224557 81 144 5.0 9.0 0.00 0.00 0.00 19 1017.7
20210924224044 82 158 4.0 7.0 0.00 0.00 0.00 20 1017.7
20210924223543 82 214 2.0 7.0 0.00 0.00 0.00 19 1017.7
20210924223116 81 77 0.0 7.0 0.00 0.00 0.00 20 1017.8
20210924222543 81 43 0.0 7.0 0.00 0.00 0.00 20 1017.8
20210924222048 80 109 0.0 5.0 0.00 0.00 0.00 20 1017.9
20210924221631 80 218 0.0 7.0 0.00 0.00 0.00 20 1017.9
20210924221119 79 160 4.0 7.0 0.00 0.00 0.00 20 1017.9
20210924220546 79 192 2.0 5.0 0.00 0.00 0.00 21 1017.9
20210924220114 79 171 0.0 3.0 0.00 0.00 0.00 20 1018.1
20210924215538 79 181 1.0 6.0 0.00 0.00 0.00 21 1018.1
20210924215054 78 258 2.0 8.0 0.00 0.00 0.00 21 1018.2
20210924214546 79 169 2.0 8.0 0.00 0.00 0.00 20 1018.2
20210924214037 80 162 1.0 4.0 0.00 0.00 0.00 20 1018.2
20210924213541 79 252 0.0 4.0 0.00 0.00 0.00 21 1018.2
20210924213124 80 134 2.0 4.0 0.00 0.00 0.00 20 1018.2
20210924212535 79 346 0.0 4.0 0.00 0.00 0.00 21 1018.3
20210924212034 80 308 0.0 5.0 0.00 0.00 0.00 19 1018.3
20210924211709 80 171 1.0 8.0 0.00 0.00 0.00 20 1018.4
20210924211051 80 193 4.0 8.0 0.00 0.00 0.00 21 1018.4
20210924210533 79 116 3.0 11.0 0.00 0.00 0.00 21 1018.5
20210924210109 80 143 5.0 13.0 0.00 0.00 0.00 20 1018.5
20210924205544 80 149 5.0 9.0 0.00 0.00 0.00 20 1018.4
20210924205033 81 73 3.0 9.0 0.00 0.00 0.00 19 1018.4
20210924204557 81 52 2.0 8.0 0.00 0.00 0.00 19 1018.5
20210924204033 82 34 2.0 7.0 0.00 0.00 0.00 18 1018.4
20210924203532 82 131 4.0 7.0 0.00 0.00 0.00 19 1018.5
20210924203040 81 209 1.0 9.0 0.00 0.00 0.00 19 1018.5
20210924202532 81 118 4.0 9.0 0.00 0.00 0.00 20 1018.6
20210924202030 80 357 1.0 6.0 0.00 0.00 0.00 21 1018.6
20210924201536 79 242 2.0 7.0 0.00 0.00 0.00 21 1018.5
20210924201029 80 249 2.0 11.0 0.00 0.00 0.00 20 1018.6
20210924200528 80 10 6.0 11.0 0.00 0.00 0.00 21 1018.8
20210924200027 80 50 4.0 8.0 0.00 0.00 0.00 21 1018.8
20210924195538 80 19 3.0 7.0 0.00 0.00 0.00 22 1018.9
20210924195104 80 102 1.0 6.0 0.00 0.00 0.00 22 1018.9
20210924194525 79 136 2.0 9.0 0.00 0.00 0.00 21 1018.9
20210924194038 78 152 4.0 9.0 0.00 0.00 0.00 22 1019.0
20210924193526 79 50 4.0 8.0 0.00 0.00 0.00 22 1019.1
20210924193116 78 158 2.0 5.0 0.00 0.00 0.00 22 1019.2
20210924192522 78 231 1.0 7.0 0.00 0.00 0.00 22 1019.2
20210924192021 78 325 2.0 8.0 0.00 0.00 0.00 23 1019.3
20210924191537 78 306 4.0 9.0 0.00 0.00 0.00 24 1019.4
20210924191025 78 311 4.0 10.0 0.00 0.00 0.00 24 1019.4
20210924190519 78 350 6.0 10.0 0.00 0.00 0.00 24 1019.4
20210924190023 77 298 1.0 9.0 0.00 0.00 0.00 25 1019.4
20210924185518 78 310 3.0 9.0 0.00 0.00 0.00 24 1019.4
20210924185021 78 302 3.0 8.0 0.00 0.00 0.00 24 1019.4
20210924184522 78 57 4.0 11.0 0.00 0.00 0.00 25 1019.6
20210924184029 78 301 6.0 11.0 0.00 0.00 0.00 25 1019.6
20210924183516 77 176 1.0 11.0 0.00 0.00 0.00 25 1019.7
20210924183016 78 306 3.0 17.0 0.00 0.00 0.00 25 1019.8
20210924182513 78 303 6.0 10.0 0.00 0.00 0.00 26 1019.7
20210924182026 78 7 1.0 10.0 0.00 0.00 0.00 26 1019.8
20210924181545 77 354 1.0 6.0 0.00 0.00 0.00 26 1019.9
20210924181019 77 25 1.0 6.0 0.00 0.00 0.00 26 1019.9
20210924180511 76 335 2.0 8.0 0.00 0.00 0.00 27 1020.1
20210924180025 76 253 5.0 9.0 0.00 0.00 0.00 27 1020.1
20210924175517 76 56 2.0 10.0 0.00 0.00 0.00 26 1020.1
20210924175011 76 56 4.0 10.0 0.00 0.00 0.00 26 1020.2
20210924174513 76 55 4.0 10.0 0.00 0.00 0.00 26 1020.3
20210924174010 76 82 2.0 12.0 0.00 0.00 0.00 26 1020.3
20210924173510 76 36 7.0 13.0 0.00 0.00 0.00 26 1020.4
20210924173014 76 21 5.0 11.0 0.00 0.00 0.00 27 1020.4
20210924172525 76 28 1.0 7.0 0.00 0.00 0.00 28 1020.4
20210924172014 75 93 1.0 7.0 0.00 0.00 0.00 27 1020.5
20210924171529 77 317 1.0 6.0 0.00 0.00 0.00 27 1020.4
20210924171008 76 164 0.0 7.0 0.00 0.00 0.00 29 1020.6
20210924170507 75 115 3.0 7.0 0.00 0.00 0.00 28 1020.6
20210924170011 75 239 1.0 6.0 0.00 0.00 0.00 29 1020.7
20210924165519 75 50 0.0 5.0 0.00 0.00 0.00 30 1020.7
20210924165019 74 1 2.0 9.0 0.00 0.00 0.00 29 1020.7
20210924164505 74 316 4.0 9.0 0.00 0.00 0.00 30 1020.8
20210924164003 73 322 2.0 6.0 0.00 0.00 0.00 30 1020.7
20210924163506 73 273 3.0 6.0 0.00 0.00 0.00 29 1020.8
20210924163002 73 314 2.0 6.0 0.00 0.00 0.00 30 1020.8
20210924162504 73 8 2.0 10.0 0.00 0.00 0.00 30 1020.9
20210924162001 73 340 3.0 10.0 0.00 0.00 0.00 31 1020.9
20210924161721 73 355 3.0 8.0 0.00 0.00 0.00 32 1020.9
20210924161128 72 20 3.0 9.0 0.00 0.00 0.00 31 1021.0
20210924160615 71 309 3.0 7.0 0.00 0.00 0.00 32 1020.9
20210924160218 71 330 3.0 5.0 0.00 0.00 0.00 34 1020.9
20210924155556 70 231 0.0 7.0 0.00 0.00 0.00 34 1020.9
20210924155055 70 318 4.0 9.0 0.00 0.00 0.00 34 1020.9
20210924154627 70 320 4.0 9.0 0.00 0.00 0.00 34 1020.8
20210924154054 70 295 5.0 9.0 0.00 0.00 0.00 35 1020.8
20210924153554 70 295 3.0 8.0 0.00 0.00 0.00 36 1020.7
20210924153111 69 314 4.0 11.0 0.00 0.00 0.00 36 1020.6
20210924152613 69 257 6.0 11.0 0.00 0.00 0.00 36 1020.6
20210924152108 68 290 5.0 12.0 0.00 0.00 0.00 37 1020.5
20210924151731 68 304 6.0 12.0 0.00 0.00 0.00 38 1020.4
20210924151051 68 304 7.0 12.0 0.00 0.00 0.00 38 1020.3
20210924150550 68 286 5.0 11.0 0.00 0.00 0.00 39 1020.3
20210924150108 67 342 7.0 11.0 0.00 0.00 0.00 40 1020.2
20210924145547 67 305 2.0 10.0 0.00 0.00 0.00 41 1020.3
20210924145052 66 269 5.0 12.0 0.00 0.00 0.00 43 1020.3
20210924144642 65 252 7.0 15.0 0.00 0.00 0.00 44 1020.3
20210924144043 64 277 9.0 15.0 0.00 0.00 0.00 44 1020.1
20210924143548 64 283 9.0 14.0 0.00 0.00 0.00 45 1020.1
20210924143214 64 285 9.0 14.0 0.00 0.00 0.00 45 1020.2
20210924142543 64 290 8.0 12.0 0.00 0.00 0.00 45 1020.3
20210924142047 64 299 6.0 12.0 0.00 0.00 0.00 45 1020.3
20210924141655 64 309 7.0 12.0 0.00 0.00 0.00 45 1020.1
20210924141041 63 288 7.0 12.0 0.00 0.00 0.00 45 1020.1
20210924140541 63 100 4.0 10.0 0.00 0.00 0.00 47 1020.1
20210924140117 62 342 5.0 10.0 0.00 0.00 0.00 49 1020.3
20210924135546 59 284 4.0 10.0 0.00 0.00 0.00 52 1020.3
20210924135117 58 305 5.0 6.0 0.00 0.00 0.00 53 1020.6
20210924134642 57 292 4.0 6.0 0.00 0.00 0.00 53 1020.7
20210924134036 57 298 2.0 5.0 0.00 0.00 0.00 53 1020.8
20210924133536 57 292 2.0 5.0 0.00 0.00 0.00 53 1020.9
20210924133117 57 306 1.0 5.0 0.00 0.00 0.00 53 1020.9
20210924132553 57 295 2.0 6.0 0.00 0.00 0.00 53 1020.8
20210924132035 57 293 3.0 9.0 0.00 0.00 0.00 52 1020.6
20210924131604 58 295 5.0 9.0 0.00 0.00 0.00 52 1020.5
20210924131034 58 297 5.0 8.0 0.00 0.00 0.00 51 1020.5
20210924130533 58 323 2.0 7.0 0.00 0.00 0.00 51 1020.6
20210924130044 58 172 3.0 8.0 0.00 0.00 0.00 51 1020.5
20210924125540 58 133 2.0 8.0 0.00 0.00 0.00 51 1020.5
20210924125034 58 183 1.0 7.0 0.00 0.00 0.00 50 1020.4
20210924124600 58 93 2.0 7.0 0.00 0.00 0.00 50 1020.3
20210924124043 58 177 2.0 8.0 0.00 0.00 0.00 51 1020.4
20210924123539 57 332 3.0 8.0 0.00 0.00 0.00 52 1020.3
20210924123143 56 297 3.0 8.0 0.00 0.00 0.00 53 1020.3
20210924122536 56 292 6.0 9.0 0.00 0.00 0.00 54 1020.3
20210924122032 55 292 6.0 9.0 0.00 0.00 0.00 54 1020.3
20210924121609 55 290 6.0 9.0 0.00 0.00 0.00 55 1020.3
20210924121034 55 295 5.0 9.0 0.00 0.00 0.00 56 1020.3
20210924120534 54 295 5.0 7.0 0.00 0.00 0.00 57 1020.3
20210924120056 52 291 4.0 6.0 0.00 0.00 0.00 59 1020.3
20210924115536 51 297 4.0 6.0 0.00 0.00 0.00 58 1020.4
20210924115028 52 297 3.0 4.0 0.00 0.00 0.00 54 1020.5
20210924114551 53 286 1.0 4.0 0.00 0.00 0.00 54 1020.7
20210924114033 53 304 1.0 4.0 0.00 0.00 0.00 54 1020.6
20210924113527 53 290 3.0 5.0 0.00 0.00 0.00 53 1020.5
20210924113051 54 297 3.0 6.0 0.00 0.00 0.00 51 1020.4
20210924112526 55 294 4.0 6.0 0.00 0.00 0.00 51 1020.5
20210924112026 55 283 4.0 7.0 0.00 0.00 0.00 51 1020.5
20210924111532 55 290 5.0 7.0 0.00 0.00 0.00 52 1020.5
20210924111025 53 290 4.0 6.0 0.00 0.00 0.00 53 1020.6
20210924110532 53 296 2.0 3.0 0.00 0.00 0.00 49 1020.7
20210924110039 55 286 0.0 3.0 0.00 0.00 0.00 48 1020.8
20210924105523 56 295 2.0 3.0 0.00 0.00 0.00 46 1020.7
20210924105023 57 290 1.0 2.0 0.00 0.00 0.00 45 1020.7
20210924104601 59 298 0.0 6.0 0.00 0.00 0.00 43 1020.7
20210924104023 59 215 2.0 6.0 0.00 0.00 0.00 43 1020.7
20210924103534 60 226 3.0 8.0 0.00 0.00 0.00 42 1020.8
20210924103116 60 233 4.0 8.0 0.00 0.00 0.00 41 1020.7
20210924102540 59 227 4.0 8.0 0.00 0.00 0.00 42 1020.6
20210924102019 59 212 3.0 7.0 0.00 0.00 0.00 42 1020.6
20210924101541 59 216 4.0 7.0 0.00 0.00 0.00 40 1020.7
20210924101018 58 148 0.0 7.0 0.00 0.00 0.00 39 1020.7
20210924100518 58 183 3.0 7.0 0.00 0.00 0.00 39 1020.7
20210924100019 58 229 5.0 7.0 0.00 0.00 0.00 40 1020.7
20210924095517 57 245 4.0 7.0 0.00 0.00 0.00 41 1020.7
20210924095023 56 209 3.0 6.0 0.00 0.00 0.00 41 1020.7
20210924094559 56 219 1.0 5.0 0.00 0.00 0.00 42 1020.7
20210924094016 55 247 2.0 5.0 0.00 0.00 0.00 42 1020.6
20210924093518 54 233 0.0 4.0 0.00 0.00 0.00 43 1020.6
20210924093021 54 171 2.0 4.0 0.00 0.00 0.00 43 1020.5
20210924084012 53 173 1.0 4.0 0.00 0.00 0.00 45 1020.6
20210924083517 53 145 3.0 4.0 0.00 0.00 0.00 45 1020.5
20210924083019 53 133 1.0 4.0 0.00 0.00 0.00 45 1020.4
20210924082514 53 288 1.0 2.0 0.00 0.00 0.00 45 1020.2
20210924082009 54 318 0.0 1.0 0.00 0.00 0.00 44 1020.2
20210924081507 54 116 0.0 1.0 0.00 0.00 0.00 43 1020.3
20210924081016 55 117 0.0 1.0 0.00 0.00 0.00 42 1020.3
20210924080506 55 95 0.0 1.0 0.00 0.00 0.00 41 1020.3
20210924080028 55 94 0.0 2.0 0.00 0.00 0.00 41 1020.2
20210924075504 56 100 0.0 2.0 0.00 0.00 0.00 39 1020.1
20210924075003 57 286 0.0 3.0 0.00 0.00 0.00 39 1020.1
20210924074508 56 294 0.0 3.0 0.00 0.00 0.00 39 1020.0
20210924074004 55 323 2.0 3.0 0.00 0.00 0.00 39 1020.0
20210924073503 56 324 1.0 2.0 0.00 0.00 0.00 39 1020.1
20210924073003 56 6 0.0 2.0 0.00 0.00 0.00 39 1020.2
20210924072503 56 112 0.0 2.0 0.00 0.00 0.00 39 1020.3
20210924072008 56 294 0.0 1.0 0.00 0.00 0.00 39 1020.0